SCP
0 0 0 0 -0 0 0 0 0 0 0 0 0 0 0 0 0 0 0 0 0 0 0 0 0 0 0 0 0 0 0 0 0 0 0 0 0 0 0 0 0 0 0
0 0 0 0 0 0 0 0 0 0 0 0 0 0 0 0 0 0 0 0 0 0 0 0 0 0 0 0 0 0 0 0 0 0 0 0 0 0 0 0 0 0 0
0 0 0 0 0 0 0 0 0 0 0 0 0 0 0 0 0 0 0 0 0 0 0 0 0 0 0 0 0 0 0 0 0 0 0 0 0 0 0 0 0 0 0
0 0 0 0 0 0 0 0 0 0 0 0 0 0 0 0 0 0 0 0 0 0 0 0 0 0 0 0 0 0 0 0 0 0 0 0 0 0 0 0 0 0 0
0 0 0 0 0 0 0 0 0 0 0 0 0 0 0 0 0 0 0 0 0 0 0 0 0 0 0 0 0 0 0 0 0 0 0 0 0 0 0 0 0 0 0
0 0 0 0 0 0 0 0 0 0 0 0 0 0 0 0 0 0 0 0 0 0 0 0 0 0 0 0 0 0 0 0 0 0 0 0 0 0 0 0 0 0 0
0 0 0 0 0 0 0 0 0 0 0 0 0 0 0 0 0 0 0 0 0 0 0 0 0 0 0 0 0 0 0 -0 -0 0 0 0 0 0 0 0 0 0 0
0 0 0 0 0 0 0 0 0 0 0 0 0 0 0 0 0 0 0 0 0 0 0 0 0 0 0 0 0 0 0 -0 -0 0 0 0 0 0 0 0 0 0 0
0 0 0 0 0 0 0 0 0 0 0 0 0 0 0 0 0 0 0 0 0 0 0 0 0 0 0 0 0 0 0 -0 -0 0 0 0 0 0 0 0 0 0 0
0 0 0 0 0 0 0 0 0 0 0 0 0 0 0 0 0 0 0 0 0 0 0 0 0 0 0 0 0 0 0 0 -0 0 0 0 0 0 0 0 0 0 0
0 0 0 0 0 0 0 0 0 0 0 0 0 0 0 0 0 0 0 0 0 0 0 0 0 0 0 0 0 0 0 0 0 0 0 1 0 0 0 0 0 0 0
0 0 0 0 0 0 0 0 0 0 0 0 0 1 1 1 1 1 1 1 0 0 0 0 0 0 0 0 0 0 0 0 0 0 0 1 1 0 0 0 0 0 0
0 0 0 0 0 0 0 0 1 1 1 1 1 1 1 1 1 1 1 1 1 1 1 1 1 1 0 0 0 0 0 0 0 0 1 1 1 0 0 0 0 0 0
0 0 0 0 0 0 0 1 1 1 1 1 1 1 1 1 1 1 1 1 1 1 1 1 1 1 1 1 1 0 0 0 0 0 1 1 1 1 0 0 0 0 0
0 0 0 0 0 1 1 1 1 1 1 1 1 1 1 1 1 1 1 1 1 1 1 1 1 1 1 1 1 0 0 0 0 1 1 1 1 1 0 0 0 0 0
1 1 1 1 1 1 1 1 1 1 1 1 1 1 1 1 1 1 1 1 1 1 1 1 1 1 1 1 1 1 1 1 1 1 1 1 1 1 0 1 1 1 1
1 1 1 1 1 1 1 1 1 1 1 1 0 0 0 1 1 1 1 1 1 1 1 1 1 1 1 1 0 0 0 1 1 1 1 1 1 1 1 1 1 1 1
1 1 1 1 1 1 1 0 0 0 0 0 0 0 0 0 0 0 1 1 0 0 0 0 0 0 0 0 0 0 0 0 0 0 0 1 1 1 1 1 1 1 1
1 1 1 0 0 0 0 0 0 0 0 0 0 0 0 0 0 0 0 0 0 0 0 0 0 0 0 0 0 0 0 0 0 0 0 0 0 1 1 1 1 1 1
0 0 0 0 0 0 0 0 0 0 0 0 0 0 0 0 0 0 0 0 0 0 0 0 0 0 0 0 0 0 0 0 0 0 0 0 0 0 1 1 1 1 1
0 0 0 0 0 0 0 0 0 0 0 0 0 0 0 0 0 0 0 0 0 0 0 0 0 0 0 0 0 0 0 0 0 0 0 0 0 0 0 1 1 1 1
0 0 0 0 0 0 0 0 0 0 0 0 0 0 0 0 0 0 0 0 0 0 0 0 0 0 0 0 0 0 0 0 0 0 0 0 0 0 0 1 1 1 1
0 0 0 0 0 0 0 0 0 0 0 0 0 0 0 0 0 0 0 0 0 0 0 0 0 0 0 0 0 0 0 0 0 0 0 0 0 0 0 0 1 1 1
0 0 0 0 0 0 0 0 0 0 0 0 0 0 0 0 0 0 0 0 0 0 0 0 0 0 0 0 0 0 0 0 0 0 0 0 0 0 0 0 0 0 1
0 0 0 0 0 1 0 0 0 0 0 0 0 0 0 0 0 0 0 0 0 0 0 0 0 0 0 0 0 0 0 0 0 0 0 0 0 0 0 0 0 0 0
0 0 0 0 1 1 1 0 0 0 0 0 0 0 0 0 0 0 0 0 0 0 0 0 0 0 0 0 0 0 0 0 0 0 0 0 0 0 0 0 0 0 0
Wind_Speed
13 17 17 13 11 11 11 11 12 13 13 13 13 13 13 12 11 11 10 9 8 7 7 7 8 8 8 8 9 9 9 9 10 10 11 11 11 11 11 12 11 13 14
16 18 17 13 12 11 11 11 11 12 13 13 13 13 12 12 11 10 9 8 7 7 7 7 7 8 8 8 8 9 8 8 9 9 11 12 11 11 10 7 5 12 13
17 18 17 13 12 11 11 11 12 12 12 13 12 12 12 11 10 9 9 7 7 6 6 6 6 7 7 8 8 8 8 7 8 7 8 9 12 10 9 9 13 14 13
17 17 16 15 12 12 11 11 12 12 12 12 12 11 11 10 9 9 8 7 6 6 6 6 6 6 7 7 7 7 7 7 6 6 6 7 10 11 9 10 12 13 13
15 15 16 16 13 12 12 11 11 11 11 11 11 10 10 9 8 8 7 6 5 5 5 5 5 5 5 6 6 6 6 5 4 7 5 6 8 11 10 10 11 12 12
15 14 17 15 14 13 12 12 11 11 11 10 10 9 8 8 7 7 6 5 5 5 5 4 4 4 4 4 5 4 4 4 8 4 5 5 8 10 9 10 11 11 11
14 14 17 14 14 12 12 11 11 11 10 10 9 9 8 7 6 6 5 5 4 5 5 4 4 4 4 4 4 4 3 4 7 3 4 4 8 10 9 9 10 11 11
13 13 15 14 13 12 11 11 11 10 10 9 9 8 8 7 6 5 5 5 4 4 5 5 5 5 5 5 4 4 4 7 6 4 4 4 10 9 9 9 9 10 11
12 12 12 13 12 12 10 10 10 9 9 9 8 8 7 7 6 6 6 6 5 5 5 6 6 6 6 6 6 6 6 7 10 4 5 4 11 9 9 10 10 10 11
10 10 10 10 10 10 11 10 9 8 8 7 7 7 7 8 8 8 9 8 7 6 6 7 7 7 8 8 8 8 7 8 12 7 5 6 11 9 10 11 11 11 11
9 8 8 9 8 8 8 9 9 8 7 7 7 7 7 7 7 8 8 4 6 7 7 8 8 9 9 10 11 9 9 9 10 7 5 10 11 10 11 12 12 13 13
10 8 6 6 6 5 4 5 5 5 5 5 3 5 5 3 3 5 2 4 6 7 8 8 8 9 11 8 10 11 8 10 9 6 4 12 10 11 12 12 13 14 14
9 8 8 6 5 5 3 3 2 2 2 4 4 4 3 2 3 4 2 3 5 7 6 6 7 7 7 5 5 6 7 7 6 6 5 12 10 11 12 13 13 14 15
8 8 7 6 5 3 2 2 2 2 2 2 2 3 3 2 2 2 2 3 3 3 4 4 3 6 7 7 8 8 9 7 7 6 4 11 11 12 14 14 14 15 16
8 7 6 4 4 3 3 2 2 1 1 1 1 2 3 2 3 3 3 3 4 4 4 4 5 6 6 7 8 9 10 10 10 9 5 9 12 13 15 16 16 16 17
7 6 5 5 4 3 3 2 1 1 1 1 2 2 2 2 3 3 4 3 4 4 4 4 5 5 5 5 8 9 9 10 10 9 9 9 14 15 16 16 17 17 17
7 6 6 5 4 3 3 3 2 1 0 1 1 2 2 2 2 2 3 3 3 3 3 4 5 5 5 6 7 8 8 9 10 10 11 9 9 15 18 17 17 17 17
6 6 5 4 5 4 2 1 1 0 1 1 0 1 1 2 2 2 2 2 2 3 3 3 5 5 5 6 6 6 7 7 10 11 11 11 9 10 15 20 19 18 19
6 6 6 5 5 4 3 2 1 1 1 1 0 1 2 2 2 3 3 2 4 4 4 5 4 5 6 6 6 7 7 8 8 10 11 12 11 11 10 13 19 18 20
5 5 5 5 5 4 4 3 1 1 1 0 1 1 1 1 2 3 3 2 5 5 4 4 5 5 6 6 8 7 8 8 8 9 10 10 10 12 13 12 11 14 21
6 6 5 5 5 4 3 2 2 2 1 1 1 1 0 2 2 3 5 3 5 5 5 7 6 7 7 5 8 8 8 9 8 7 8 8 10 10 11 11 10 10 10
6 6 5 5 5 4 2 1 1 1 2 1 1 1 1 2 3 4 4 6 5 5 6 6 6 7 7 6 7 8 8 8 6 6 5 7 7 7 9 11 10 11 10
7 7 5 5 5 4 3 3 2 3 3 3 2 2 2 3 4 4 5 6 5 8 6 6 7 8 8 8 7 7 8 7 6 5 5 5 5 5 6 7 10 11 12
8 7 6 6 6 5 5 4 4 4 4 4 3 3 3 4 5 5 6 6 6 8 6 8 8 7 8 9 7 6 8 8 8 7 6 5 6 6 6 7 8 9 11
8 7 7 7 6 6 5 4 5 5 4 4 4 4 6 5 5 6 6 6 6 7 7 7 8 9 8 9 8 7 7 7 9 9 9 7 6 6 5 6 7 7 9
7 7 7 6 6 5 5 5 5 5 5 6 6 6 6 5 5 6 6 6 7 7 7 8 8 9 9 9 9 9 8 8 8 8 9 8 8 7 6 6 6 6 7
Wind_Direction
148 139 139 145 143 141 140 143 147 153 153 150 149 148 147 145 143 141 137 132 126 117 105 97 94 95 97 98 100 104 109 111 113 116 117 116 117 119 122 132 145 116 115
142 138 141 145 144 139 135 135 137 144 149 147 146 146 146 146 145 143 141 137 132 122 110 101 98 97 99 102 103 107 113 116 118 121 127 126 121 123 129 134 96 110 124
141 139 147 145 144 139 134 131 131 133 139 142 141 143 145 146 146 146 145 142 139 129 116 108 104 103 104 106 109 112 115 116 120 136 168 144 124 126 126 112 107 123 126
142 144 150 143 145 141 137 134 132 132 133 137 139 141 143 146 147 147 148 147 146 138 128 120 114 112 112 113 116 119 120 120 130 188 181 126 130 126 132 127 127 131 130
141 143 139 148 148 146 143 139 136 135 135 137 140 143 145 147 149 151 152 154 154 149 139 132 126 123 124 125 123 125 124 126 163 228 114 122 119 130 140 139 137 136 137
145 148 140 152 150 150 148 146 143 141 141 143 145 147 151 153 157 160 164 168 165 157 150 146 143 140 141 141 138 135 135 157 222 161 126 141 123 139 149 149 146 143 144
150 146 143 153 152 153 153 152 150 149 150 151 153 156 159 163 169 174 179 186 184 176 170 169 169 164 167 171 168 164 171 221 255 130 147 138 114 140 157 157 156 153 153
150 146 139 152 155 157 157 157 156 157 159 161 163 166 170 174 181 188 192 199 207 204 194 193 193 189 192 197 198 197 208 248 236 185 179 139 119 155 168 167 166 164 163
148 142 149 158 160 162 163 164 164 167 169 172 176 180 184 190 199 208 210 217 225 227 219 216 215 209 208 211 214 217 226 252 269 216 195 159 139 172 183 179 178 177 173
148 150 154 161 162 170 170 168 171 174 178 183 188 192 199 207 211 215 221 213 227 236 239 235 231 226 220 220 222 224 230 242 250 232 207 150 149 185 197 192 187 187 184
156 156 164 161 164 177 177 163 178 181 187 198 197 199 218 228 222 211 227 198 230 240 245 247 246 239 232 221 222 225 229 242 240 244 220 132 161 195 208 204 197 195 193
163 165 162 169 160 181 181 164 194 193 180 212 211 207 222 241 264 269 142 221 245 251 247 243 251 249 241 234 210 211 231 238 257 245 201 140 174 205 215 213 206 202 200
168 173 169 167 171 189 184 190 191 199 178 209 216 229 239 261 261 269 256 223 232 236 243 226 233 247 246 247 251 227 239 252 248 255 211 156 186 212 221 219 214 209 205
174 174 177 166 179 192 205 205 213 218 203 228 214 257 246 240 254 267 278 278 269 263 263 263 250 250 256 250 248 252 246 241 250 251 224 171 195 217 224 224 220 215 211
172 173 165 168 171 181 190 234 232 253 258 260 298 259 262 255 253 250 262 271 275 275 269 265 264 265 264 259 253 248 250 248 247 249 242 196 205 219 228 227 224 220 216
164 158 150 160 163 178 192 207 230 250 292 298 276 271 261 259 263 261 253 260 268 269 278 278 273 270 266 261 258 256 254 254 249 246 248 227 213 217 224 229 228 223 219
151 147 148 159 159 166 194 205 187 198 208 297 315 300 298 285 272 267 262 257 269 275 267 264 270 266 262 260 258 261 258 254 253 248 248 246 233 218 218 223 226 226 223
143 140 145 151 141 149 162 182 178 72 33 343 318 323 352 343 306 284 277 273 285 272 268 267 266 275 274 275 272 268 263 254 252 250 246 240 241 241 219 214 220 223 225
140 140 141 138 140 142 143 153 144 96 24 326 345 16 23 345 328 299 302 320 279 272 271 275 281 283 280 280 276 260 262 259 256 252 249 247 242 240 241 212 212 220 224
136 135 137 140 134 146 154 156 160 164 189 244 29 51 344 312 319 309 284 306 292 282 278 279 285 273 280 279 282 283 271 267 260 255 253 249 244 241 238 236 221 218 221
144 145 151 148 144 167 172 190 190 192 215 215 200 91 304 330 337 306 305 300 281 284 293 290 285 273 267 275 276 273 265 255 255 255 252 256 250 245 246 240 236 234 218
162 163 169 175 173 193 169 211 254 286 259 256 274 142 300 324 315 298 316 292 289 290 273 278 276 286 286 272 276 285 281 267 234 248 251 248 253 252 248 243 236 235 242
178 184 186 184 190 203 199 214 209 222 241 231 245 243 294 306 303 309 297 296 303 286 283 289 282 269 279 279 268 279 287 289 306 267 256 257 260 264 260 255 243 237 233
193 193 196 197 202 204 215 234 250 271 286 300 292 298 293 283 293 294 289 289 289 293 296 277 276 282 272 273 262 253 267 290 288 287 266 254 250 253 262 265 261 249 241
199 199 197 199 205 208 223 229 247 267 284 286 288 282 284 282 276 280 283 287 285 283 293 295 293 278 274 272 279 271 261 257 254 265 279 284 272 262 259 257 258 258 251
201 201 202 199 206 209 220 232 253 277 289 295 291 295 285 284 279 276 278 280 278 284 287 279 279 270 269 277 279 277 272 267 265 268 272 272 276 275 272 271 264 256 251